Overview Statistics Trail Chart Weather Telemetry Raw packets
 

This is the latest recevied weather packets stored in our database for station/object KB4MLW-13. If no packets are shown the sender has not sent any weather packets the latest 10 day(s).

<< 1 2 3 4 5 >>
Time Temp. Humidity Pressure Rain* Wind** Luminosity Snow
1788380488 36.11° C 52% 999.8 hPa 0 mm - - -
1788380428 35.56° C 55% 1000 hPa 0 mm - - -
1788380368 35.56° C 55% 999.8 hPa 0 mm - - -
1788380279 35.56° C 52% 999.9 hPa 0 mm - - -
1788380188 35.56° C 55% 1000 hPa 0 mm - - -
1788380128 35.56° C 51% 1000 hPa 0 mm - - -
1788380068 35.56° C 51% 1000.1 hPa 0 mm - - -
1788379980 35.56° C 54% 1000.1 hPa 0 mm - - -
1788379918 35.56° C 55% 1000.1 hPa 0 mm - - -
1788379858 35.56° C 54% 1000 hPa 0 mm - - -
1788379798 35.56° C 53% 1000.1 hPa 0 mm - - -
1788379709 36.11° C 54% 1000 hPa 0 mm - - -
1788379619 36.11° C 56% 1000 hPa 0 mm - - -
1788379528 35.56° C 57% 1000.3 hPa 0 mm - - -
1788379468 35.56° C 53% 1000.3 hPa 0 mm - - -
1788379408 35.56° C 52% 1000.1 hPa 0 mm - - -
1788379318 35.56° C 56% 1000.2 hPa 0 mm - - -
1788379258 35.56° C 55% 1000.1 hPa 0 mm - - -
1788379168 35° C 57% 1000.1 hPa 0 mm - - -
1788379078 35° C 56% 1000.2 hPa 0 mm - - -
1788379018 35° C 56% 1000.4 hPa 0 mm - - -
1788378928 35° C 57% 1000.2 hPa 0 mm - - -
1788378868 35° C 54% 1000.2 hPa 0 mm - - -
1788378808 35° C 55% 1000.3 hPa 0 mm - - -
1788378718 35° C 53% 1000.3 hPa 0 mm - - -

* Rain latest hour (hover to see other rain measurements)
** Current wind speed in m/s (hover to see current wind gust speed)